Regional Weather Roundup
Issued by NWS Newport/Morehead, NC

Current Version | Previous Version | Graphics & Text | Print | Product List | Glossary On
Versions: 1 2 3 4 5 6 7 8 9 10 11 12 13 14 15 16 17 18 19 20 21 22 23 24 25 26 27 28 29 30 31 32 33 34 35 36 37 38 39 40 41 42 43 44 45 46 47 48 49 50
714 ASUS42 KMHX 180913 RWRMHX WEATHER ROUNDUP FOR EASTERN NORTH CAROLINA NATIONAL WEATHER SERVICE NEWPORT/MOREHEAD CITY NC 400 AM EST MON DEC 18 2017 NOTE: "FAIR" INDICATES FEW OR NO CLOUDS BELOW 12,000 FEET WITH NO SIGNIFICANT WEATHER AND/OR OBSTRUCTIONS TO VISIBILITY NCZ015>017-031-032-045>047-102-103-181000- NORTH COAST CITY SKY/WX TMP DP RH WIND PRES REMARKS EDENTON CLOUDY 48 43 82 SW6 30.17F ELIZABETH CITY CLOUDY 42 42 100 SW5 30.16F KITTY HAWK CLOUDY 45 40 83 CALM 30.16R MANTEO MOCLDY 45 42 90 CALM 30.17F $$ NCZ045>047-081-094-103-104-181000- CENTRAL COAST CITY SKY/WX TMP DP RH WIND PRES REMARKS FRISCO CLOUDY 49 48 97 CALM 30.17F $$ NCZ095-097-098-100-101-181000- SOUTHERN COAST CITY SKY/WX TMP DP RH WIND PRES REMARKS BEAUFORT CLOUDY 53 47 79 CALM 30.17F CEDAR ISLAND NOT AVBL JACKSONVILLE CLOUDY 52 48 86 CALM 30.17S PINEY ISLAND N/A N/A N/A N/A CALM 30.16F WILMINGTON CLOUDY 53 48 83 CALM 30.17F $$ NCZ011>013-027>030-043-044-078>080-089-090>093-098-181000- COASTAL PLAIN CITY SKY/WX TMP DP RH WIND PRES REMARKS AHOSKIE CLOUDY 41 40 95 CALM 30.17S CLINTON CLOUDY 50 44 80 CALM 30.18S ELIZABETHTOWN NOT AVBL GOLDSBORO CLOUDY 50 39 67 CALM 30.15F GREENVILLE MOCLDY 45 41 87 CALM 30.19S HAVELOCK CLOUDY 50 N/A N/A SW3 30.18S KENANSVILLE CLOUDY 50 45 81 CALM 30.17F KINSTON NOT AVBL NEW BERN CLOUDY 50 46 86 CALM 30.18S RICHLANDS CLOUDY 50 47 89 CALM 30.17F ROCKY MOUNT PTCLDY 41 41 100 CALM 30.17F WASHINGTON CLOUDY 46 44 92 CALM 30.18S WHITEVILLE CLOUDY 53 47 82 CALM 30.17S $$ AMZ130-135-150-152-154-156-158-170-250-252-270-ANZ085-086-088-633-658-670-181000- MARINE OBSERVATIONS STATION/POSITION TIME TEMP WIND PRES WAVE SWELL AIR SEA DIR/SP/G HT/PER HT/PER (UTC) (F) (DEG/KT/KT) (MB) (FT/S) (FT/S) CHESAPEAKE LIGHT NOT AVBL 64 E VA BEACH 0850 53 58 250/ 12/ 14 1021.2 2/ 4 2/10 DUCK 0848 47 52 230/ 5/ 6 1020.8 2 E DUCK 0900 54 N/A 1/10 OREGON INLET 0836 46 45 210/ 2/ 3 1021.5 13E OREGON INLT 0848 53 N/A 1/ 9 2/ 9 HATTERAS CG 0848 49 52 CALM / 1 1021.5 DIAMOND BUOY 0850 58 72 280/ 12/ 16 1022.0 2/10 2/10 CAPE LOOKOUT 0900 190/ 3/ 3 1021.7 BEAUFORT LAB 0848 53 50 210/ 2/ 4 1021.4 30 SE NEW RVR IN 0808 59 63 250/ 2/ 4 1022.3 30 SE NEW RVR IN 0900 63 N/A 1/10 27 SE WRIGHTSVLE 0808 59 61 140/ 4/ 6 1022.2 5 SE WRIGHTSVLE 0808 56 56 170/ 4/ 6 1022.0 225 S CAPE HAT 0850 70 74 230/ 8/ 12 1023.1 2/ 9 2/ 9 41 SE CHARLESTON 0850 71 73 230/ 14/ 17 1021.4 2/ 4 2/10 $$

USA.gov is the U.S. government's official web portal to all federal, state and local government web resources and services.